Location: Azul
(36.7830°S, 59.8500°W)
Time: 00:27:36
(UTC-03:00)

YUBILEINY - Visible Passes

Search period start: 19 September 2024 00:00
Search period end: 29 September 2024 00:00
Orbit: 1478 x 1508 km, 82.5° (Epoch: 18 September)

Date Brightness Start Highest point End Pass type
(mag) Time Alt. Az. Time Alt. Az. Time Alt. Az.
19 Sep ? 00:23:32 10° SE 00:23:57 10° SE 00:23:57 10° SE visible
19 Sep ? 02:15:42 10° S 02:19:50 32° S 02:19:50 32° S visible
19 Sep ? 04:14:03 10° SW 04:15:43 15° SW 04:15:43 15° SW visible
20 Sep ? 01:26:34 10° S 01:30:29 25° SSE 01:30:29 25° SSE visible
20 Sep ? 03:23:13 10° SSW 03:26:23 24° SSW 03:26:23 24° SSW visible
21 Sep ? 00:38:17 10° SSE 00:41:09 16° SE 00:41:09 16° SE visible
21 Sep ? 02:33:10 10° S 02:37:03 30° SSW 02:37:03 30° SSW visible
22 Sep ? 01:43:40 10° S 01:47:44 30° SSE 01:47:44 30° SSE visible
22 Sep ? 03:41:26 10° SSW 03:43:37 17° SW 03:43:37 17° SW visible
23 Sep ? 00:54:43 10° SSE 00:58:25 23° SSE 00:58:25 23° SSE visible
23 Sep ? 02:50:54 10° SSW 02:54:19 26° SSW 02:54:19 26° SSW visible
24 Sep ? 00:06:56 10° SSE 00:09:08 14° SE 00:09:08 14° SE visible
24 Sep ? 02:01:02 10° S 02:05:01 31° S 02:05:01 31° S visible
24 Sep ? 04:00:23 10° SW 04:00:55 11° SW 04:00:55 11° SW visible
25 Sep ? 01:11:40 10° S 01:15:45 28° SSE 01:15:45 28° SSE visible
25 Sep ? 03:08:57 10° SSW 03:11:38 20° SW 03:11:38 20° SW visible
26 Sep ? 00:22:58 10° SSE 00:26:28 20° SE 00:26:28 20° SE visible
26 Sep ? 02:18:39 10° SSW 02:22:22 29° SSW 02:22:22 29° SSW visible
26 Sep ? 23:36:03 10° SE 23:37:13 11° SE 23:37:13 11° SE visible
27 Sep ? 01:28:56 10° S 01:33:06 32° S 01:33:06 32° S visible
27 Sep ? 03:27:30 10° SW 03:29:01 14° SW 03:29:01 14° SW visible
28 Sep ? 00:39:45 10° S 00:43:51 27° SSE 00:43:51 27° SSE visible
28 Sep ? 02:36:33 10° SSW 02:39:45 23° SW 02:39:45 23° SW visible
